TimeCDT,TemperatureF,Dew PointF,Humidity,Sea Level PressureIn,VisibilityMPH,Wind Direction,Wind SpeedMPH,Gust SpeedMPH,PrecipitationIn,Events,Conditions,WindDirDegrees,DateUTC
12:15 AM,72.1,68.2,87,30.02,10.0,South,3.5,-,N/A,,Clear,170,2014-08-26 05:15:00
12:35 AM,71.8,68.0,88,30.02,10.0,South,3.5,-,N/A,,Clear,170,2014-08-26 05:35:00
12:55 AM,71.6,68.2,89,30.02,10.0,South,3.5,-,N/A,,Clear,170,2014-08-26 05:55:00
1:15 AM,71.1,68.0,90,30.02,10.0,Calm,Calm,-,N/A,,Clear,0,2014-08-26 06:15:00
1:35 AM,71.1,68.0,90,30.02,10.0,Calm,Calm,-,N/A,,Clear,0,2014-08-26 06:35:00
1:55 AM,70.3,67.5,91,30.02,10.0,Calm,Calm,-,N/A,,Clear,0,2014-08-26 06:55:00
2:15 AM,70.0,67.6,92,30.02,10.0,Calm,Calm,-,N/A,,Clear,0,2014-08-26 07:15:00
2:35 AM,69.8,67.6,93,30.01,10.0,Calm,Calm,-,N/A,,Clear,0,2014-08-26 07:35:00
2:55 AM,70.0,68.0,93,30.01,10.0,Calm,Calm,-,N/A,,Clear,0,2014-08-26 07:55:00
3:15 AM,69.8,68.0,94,30.00,7.0,Calm,Calm,-,N/A,,Clear,0,2014-08-26 08:15:00
3:35 AM,69.8,68.0,94,30.00,7.0,Calm,Calm,-,N/A,,Clear,0,2014-08-26 08:35:00
3:55 AM,70.0,68.0,93,30.00,10.0,Calm,Calm,-,N/A,,Clear,0,2014-08-26 08:55:00
4:15 AM,69.8,67.6,93,30.01,7.0,Calm,Calm,-,N/A,,Clear,0,2014-08-26 09:15:00
4:35 AM,69.1,67.3,94,30.02,7.0,Calm,Calm,-,N/A,,Clear,0,2014-08-26 09:35:00
4:55 AM,69.8,67.8,93,30.03,10.0,Calm,Calm,-,N/A,,Scattered Clouds,0,2014-08-26 09:55:00
5:15 AM,70.3,68.2,93,30.04,10.0,Calm,Calm,-,N/A,,Overcast,0,2014-08-26 10:15:00
5:35 AM,70.3,68.2,93,30.04,10.0,Calm,Calm,-,N/A,,Scattered Clouds,0,2014-08-26 10:35:00
5:55 AM,70.7,68.4,92,30.04,7.0,Calm,Calm,-,N/A,,Clear,0,2014-08-26 10:55:00
6:15 AM,70.9,68.7,93,30.05,7.0,Calm,Calm,-,N/A,,Clear,0,2014-08-26 11:15:00
6:35 AM,72.1,69.8,92,30.05,7.0,Calm,Calm,-,N/A,,Clear,0,2014-08-26 11:35:00
6:55 AM,72.7,70.0,91,30.06,5.0,Calm,Calm,-,N/A,,Scattered Clouds,0,2014-08-26 11:55:00
7:15 AM,73.0,70.3,91,30.07,5.0,SSE,3.5,-,N/A,,Scattered Clouds,150,2014-08-26 12:15:00
7:35 AM,74.3,71.1,90,30.07,5.0,SSE,3.5,-,N/A,,Mostly Cloudy,160,2014-08-26 12:35:00
7:55 AM,76.1,72.0,87,30.07,7.0,SSE,4.6,-,N/A,,Scattered Clouds,160,2014-08-26 12:55:00
8:15 AM,77.4,72.7,85,30.07,7.0,South,5.8,-,N/A,,Clear,170,2014-08-26 13:15:00
8:35 AM,78.8,73.4,83,30.07,7.0,South,8.1,-,N/A,,Clear,180,2014-08-26 13:35:00
8:55 AM,80.2,73.4,80,30.07,10.0,South,6.9,-,N/A,,Clear,180,2014-08-26 13:55:00
9:55 AM,84.4,74.8,73,30.06,10.0,SSW,3.5,-,N/A,,Mostly Cloudy,200,2014-08-26 14:55:00
10:15 AM,86.9,75.2,68,30.07,10.0,SSW,3.5,-,N/A,,Overcast,200,2014-08-26 15:15:00
10:35 AM,86.9,75.4,68,30.07,10.0,Calm,Calm,-,N/A,,Mostly Cloudy,0,2014-08-26 15:35:00
10:55 AM,87.4,75.9,68,30.07,10.0,WNW,4.6,-,N/A,,Mostly Cloudy,300,2014-08-26 15:55:00
11:15 AM,89.4,76.6,66,30.07,10.0,NW,3.5,-,N/A,,Scattered Clouds,310,2014-08-26 16:15:00
11:35 AM,87.8,74.1,64,30.07,10.0,NW,4.6,-,N/A,,Scattered Clouds,310,2014-08-26 16:35:00
11:55 AM,89.6,74.8,62,30.07,10.0,WNW,6.9,-,N/A,,Scattered Clouds,290,2014-08-26 16:55:00
12:15 PM,88.7,74.5,63,30.07,10.0,NNW,4.6,-,N/A,,Clear,340,2014-08-26 17:15:00
12:35 PM,88.2,75.4,66,30.07,10.0,NW,4.6,-,N/A,,Clear,320,2014-08-26 17:35:00
12:55 PM,87.6,75.0,66,30.06,10.0,North,5.8,-,N/A,,Clear,360,2014-08-26 17:55:00
1:15 PM,87.4,75.0,66,30.05,10.0,Calm,Calm,-,N/A,,Clear,0,2014-08-26 18:15:00
1:35 PM,87.8,75.4,66,30.04,10.0,Calm,Calm,-,N/A,,Clear,0,2014-08-26 18:35:00
1:55 PM,89.6,75.7,64,30.04,10.0,Calm,Calm,-,N/A,,Clear,0,2014-08-26 18:55:00
2:15 PM,89.1,75.2,63,30.03,10.0,Calm,Calm,-,N/A,,Clear,0,2014-08-26 19:15:00
2:35 PM,88.9,75.6,65,30.03,10.0,East,3.5,-,N/A,,Clear,100,2014-08-26 19:35:00
2:55 PM,88.9,75.4,64,30.03,10.0,Calm,Calm,-,N/A,,Clear,0,2014-08-26 19:55:00
3:15 PM,88.5,75.9,66,30.02,10.0,Calm,Calm,-,N/A,,Clear,0,2014-08-26 20:15:00
3:35 PM,88.2,75.9,67,30.02,10.0,Calm,Calm,-,N/A,,Clear,0,2014-08-26 20:35:00
3:55 PM,88.9,75.7,65,30.01,10.0,Calm,Calm,-,N/A,,Clear,0,2014-08-26 20:55:00
4:15 PM,89.8,76.3,64,30.00,10.0,Calm,Calm,-,N/A,,Clear,0,2014-08-26 21:15:00
4:35 PM,90.7,76.1,62,30.00,10.0,Calm,Calm,-,N/A,,Clear,0,2014-08-26 21:35:00
4:55 PM,91.2,76.5,62,30.00,10.0,Calm,Calm,-,N/A,,Clear,0,2014-08-26 21:55:00
5:15 PM,90.3,77.0,65,30.01,10.0,Calm,Calm,-,N/A,,Mostly Cloudy,0,2014-08-26 22:15:00
5:35 PM,88.0,77.4,71,30.01,10.0,North,3.5,-,N/A,,Overcast,360,2014-08-26 22:35:00
5:55 PM,88.2,77.2,70,30.00,10.0,North,5.8,-,N/A,,Scattered Clouds,350,2014-08-26 22:55:00
6:15 PM,88.3,77.5,70,30.00,10.0,North,5.8,-,N/A,Thunderstorm,Thunderstorm,10,2014-08-26 23:15:00
6:35 PM,87.8,76.6,69,30.01,10.0,North,4.6,-,N/A,,Scattered Clouds,360,2014-08-26 23:35:00
6:55 PM,86.5,73.8,66,29.99,10.0,East,9.2,-,N/A,Thunderstorm,Clear,90,2014-08-26 23:55:00
7:15 PM,82.0,69.3,65,29.99,10.0,Calm,Calm,-,N/A,Thunderstorm,Mostly Cloudy,0,2014-08-27 00:15:00
7:35 PM,82.2,68.5,63,30.00,10.0,East,3.5,-,N/A,Thunderstorm,Mostly Cloudy,100,2014-08-27 00:35:00
7:55 PM,81.3,69.1,66,30.02,10.0,Calm,Calm,-,N/A,Thunderstorm,Mostly Cloudy,0,2014-08-27 00:55:00
8:15 PM,79.9,69.6,71,30.05,10.0,ESE,11.5,16.1,N/A,,Mostly Cloudy,120,2014-08-27 01:15:00
8:35 PM,77.4,66.7,70,30.04,10.0,SSE,13.8,19.6,N/A,,Mostly Cloudy,150,2014-08-27 01:35:00
8:55 PM,76.5,68.9,77,30.05,10.0,South,5.8,-,N/A,Thunderstorm,Overcast,170,2014-08-27 01:55:00
9:15 PM,77.0,69.1,76,30.05,10.0,SSE,6.9,-,N/A,,Mostly Cloudy,150,2014-08-27 02:15:00
9:35 PM,75.4,68.2,78,30.07,10.0,South,11.5,-,N/A,,Clear,170,2014-08-27 02:35:00
9:55 PM,76.1,66.9,73,30.06,10.0,SSW,5.8,-,N/A,,Clear,200,2014-08-27 02:55:00
10:15 PM,75.6,66.6,74,30.05,10.0,SSW,9.2,19.6,N/A,,Clear,200,2014-08-27 03:15:00
10:35 PM,75.2,65.7,72,30.04,10.0,SSW,9.2,-,N/A,,Clear,210,2014-08-27 03:35:00
10:55 PM,74.7,65.3,73,30.05,10.0,SSW,5.8,-,N/A,,Clear,200,2014-08-27 03:55:00
11:15 PM,74.3,65.5,74,30.05,10.0,Calm,Calm,-,N/A,,Clear,0,2014-08-27 04:15:00
11:35 PM,74.3,65.7,74,30.06,10.0,Calm,Calm,-,N/A,,Clear,0,2014-08-27 04:35:00
11:55 PM,74.3,66.2,76,30.06,10.0,West,3.5,-,N/A,,Clear,270,2014-08-27 04:55:00